Panama City Beach, FL

7:47 AM CST on February 26, 2017 (GMT -0600)
Northwest Florida Beaches International

Weather History for KECP - March, 2013

Change the Weather History Date:

Wednesday, March 20, 2013

  Actual Average Record
Temperature  
Mean Temperature 56 °F -  
Max Temperature 69 °F - 83 °F (2015)
Min Temperature 43 °F - 43 °F (2013)
Degree Days  
Heating Degree Days 9    
Cooling Degree Days 0    
Growing Degree Days 8 (Base 50)    
Moisture  
Dew Point 40 °F    
Average Humidity 57    
Maximum Humidity 86    
Minimum Humidity 28    
Precipitation  
Precipitation 0.01 in - 0.01 in (2013)
Month to date precipitation  
Year to date precipitation  
Sea Level Pressure  
Sea Level Pressure 30.03 in    
Wind  
Wind Speed 7 mph (North)    
Max Wind Speed 18 mph    
Max Gust Speed 23 mph    
Visibility 10 miles    
Events Rain , Thunderstorm    
T = Trace of Precipitation, MM = Missing Value Source: NWS Daily Summary

Daily Weather History Graph

Daily Weather History Graph

Search for Another Location

Airport or City:

Trip Planner

Search our weather history database for the weather conditions in past years. The results will help you decide how hot, cold, wet, or windy it might be!

Date:

Astronomy

Mar. 20, 2013 Rise Set
Actual Time 7:46 AM EDT 7:54 PM EDT
Civil Twilight 7:22 AM EDT 8:18 PM EDT
Nautical Twilight 6:54 AM EDT 8:46 PM EDT
Astronomical Twilight 6:26 AM EDT 9:14 PM EDT
Moon 1:51 PM EDT (3/20) 3:03 AM EDT (3/20)
Length of Visible Light 12h 56m
Length of Day
12h 08m
First Quarter, 59% of the Moon is Illuminated
Mar 20
First Quarter
Mar 27
Full
Apr 3
Last Quarter
Apr 10
New
Apr 18
First Quarter

Hourly Weather History & Observations

Time (EDT) Temp. Dew Point Humidity Pressure Visibility Wind Dir Wind Speed Gust Speed Precip Events Conditions
12:53 AM 59.0 °F 55.9 °F 90% 30.03 in 10.0 mi Calm Calm - N/A   Clear
1:53 AM 57.9 °F 54.0 °F 87% 30.01 in 10.0 mi North 5.8 mph - N/A   Scattered Clouds
2:53 AM 59.0 °F 48.0 °F 67% 30.00 in 10.0 mi North 8.1 mph - N/A   Partly Cloudy
3:53 AM 60.1 °F 43.0 °F 53% 29.98 in 10.0 mi NNE 10.4 mph - N/A   Partly Cloudy
4:53 AM 59.0 °F 41.0 °F 51% 29.97 in 10.0 mi NNE 9.2 mph - N/A   Mostly Cloudy
5:53 AM 59.0 °F 37.9 °F 46% 30.00 in 10.0 mi North 9.2 mph - N/A   Overcast
6:53 AM 59.0 °F 37.9 °F 46% 30.03 in 10.0 mi NNE 10.4 mph - N/A   Overcast
7:53 AM 57.9 °F 37.0 °F 46% 30.08 in 10.0 mi NNW 10.4 mph - 0.00 in Rain Light Rain
8:53 AM 54.0 °F 41.0 °F 62% 30.08 in 10.0 mi North 9.2 mph - 0.01 in   Scattered Clouds
9:04 AM 55.4 °F 41.0 °F 58% 30.08 in 10.0 mi Variable 5.8 mph - N/A Thunderstorm Thunderstorm
9:53 AM 57.0 °F 37.0 °F 47% 30.07 in 10.0 mi NNE 16.1 mph - N/A   Partly Cloudy
10:53 AM 62.1 °F 33.1 °F 34% 30.08 in - NNE 15.0 mph - N/A   Partly Cloudy
11:53 AM 66.0 °F 33.1 °F 29% 30.07 in 10.0 mi NE 13.8 mph - N/A   Clear
12:53 PM 66.9 °F 34.0 °F 30% 30.07 in 10.0 mi North 10.4 mph - N/A   Clear
1:53 PM 69.1 °F 36.0 °F 30% 30.03 in 10.0 mi NNE 9.2 mph - N/A   Clear
2:53 PM 64.9 °F 41.0 °F 42% 30.03 in 10.0 mi NNW 4.6 mph - N/A   Overcast
3:53 PM 64.9 °F 42.1 °F 43% 30.01 in 10.0 mi NNW 6.9 mph - 0.00 in   Mostly Cloudy
4:53 PM 66.0 °F 37.9 °F 36% 30.00 in 10.0 mi NNW 12.7 mph - N/A   Partly Cloudy
5:53 PM 66.9 °F 34.0 °F 30% 29.98 in 10.0 mi North 11.5 mph - N/A   Clear
6:53 PM 66.0 °F 37.0 °F 34% 29.96 in 10.0 mi NNW 10.4 mph - N/A   Clear
7:53 PM 60.1 °F 37.0 °F 42% 29.98 in 10.0 mi NW 6.9 mph - N/A   Clear
8:53 PM 53.1 °F 39.0 °F 59% 30.00 in 10.0 mi NW 5.8 mph - N/A   Clear
9:53 PM 51.1 °F 37.0 °F 59% 30.02 in 10.0 mi NW 4.6 mph - N/A   Clear
10:53 PM 48.9 °F 37.0 °F 64% 30.03 in 10.0 mi NW 3.5 mph - N/A   Clear
11:53 PM 48.0 °F 37.0 °F 66% 30.04 in 10.0 mi NW 6.9 mph - N/A   Clear